Zurück zum Katalog

STARLINK-38108

AktivKommunikationVLEO
NORAD 100024·PAYLOAD·🇺🇸 United States

Gestartet Jul 14, 2026 von Vandenberg Space Force Base

Loading…

Nächste Überflüge (nächste 24 Stunden)

TLE

AktuellSource: Space-Track

Epoche: Sep 14, 2026, 22:26 UTC

1 A0024U 26160Z   26257.93540253 -.00310428  00000-0 -21098-2 0  9996
2 A0024  70.0010 210.7518 0007102 292.6103  67.4344 15.75471714 11117

Verfolge STARLINK-38108 in Echtzeit mit AllMySat

Download on the App Store